Zurück zum Katalog

COSMOS 1027

AktivMilitärPO
NORAD 10991·PAYLOAD·🇷🇺 Russia

Gestartet Jul 27, 1978 von Plesetsk Cosmodrome

Loading…

Nächste Überflüge (nächste 24 Stunden)

TLE

AktuellSource: Space-Track

Epoche: Sep 14, 2026, 14:04 UTC

1 10991U 78074A   26257.58630082  .00000058  00000-0  43269-4 0  9991
2 10991  82.9368 310.7622 0027703 135.7459  29.0092 13.76701872417402

Verfolge COSMOS 1027 in Echtzeit mit AllMySat

Download on the App Store